TimeCST,TemperatureF,Dew PointF,Humidity,Sea Level PressureIn,VisibilityMPH,Wind Direction,Wind SpeedMPH,Gust SpeedMPH,PrecipitationIn,Events,Conditions,WindDirDegrees,DateUTC
12:53 AM,25.0,19.9,81,30.47,10.0,ESE,3.5,-,N/A,,Clear,110,2013-01-18 06:53:00
1:53 AM,25.0,19.9,81,30.48,10.0,ESE,4.6,-,N/A,,Clear,110,2013-01-18 07:53:00
2:53 AM,25.0,19.0,78,30.48,10.0,ESE,6.9,-,N/A,,Clear,120,2013-01-18 08:53:00
3:53 AM,26.1,19.9,78,30.47,10.0,Calm,Calm,-,N/A,,Clear,0,2013-01-18 09:53:00
4:53 AM,25.0,19.0,78,30.45,10.0,ESE,6.9,-,N/A,,Clear,120,2013-01-18 10:53:00
5:53 AM,28.9,19.9,69,30.43,10.0,ESE,6.9,-,N/A,,Clear,120,2013-01-18 11:53:00
6:53 AM,30.0,19.9,66,30.43,10.0,ESE,4.6,-,N/A,,Clear,120,2013-01-18 12:53:00
7:53 AM,30.9,19.9,64,30.42,10.0,ESE,4.6,-,N/A,,Clear,120,2013-01-18 13:53:00
8:53 AM,34.0,24.1,67,30.41,10.0,SSE,5.8,-,N/A,,Clear,160,2013-01-18 14:53:00
9:53 AM,39.0,24.1,55,30.40,10.0,SSW,9.2,-,N/A,,Clear,200,2013-01-18 15:53:00
10:53 AM,44.1,26.1,49,30.36,10.0,South,10.4,-,N/A,,Clear,180,2013-01-18 16:53:00
11:53 AM,48.9,26.1,41,30.30,10.0,South,10.4,-,N/A,,Clear,180,2013-01-18 17:53:00
12:53 PM,52.0,25.0,35,30.23,10.0,South,13.8,18.4,N/A,,Clear,190,2013-01-18 18:53:00
1:53 PM,57.0,24.1,28,30.19,10.0,SSW,15.0,23.0,N/A,,Clear,210,2013-01-18 19:53:00
2:53 PM,57.9,21.0,24,30.16,10.0,SW,18.4,29.9,N/A,,Clear,230,2013-01-18 20:53:00
3:53 PM,57.9,23.0,26,30.13,10.0,SSW,11.5,21.9,N/A,,Clear,210,2013-01-18 21:53:00
4:53 PM,57.0,23.0,27,30.13,10.0,South,9.2,-,N/A,,Clear,190,2013-01-18 22:53:00
5:53 PM,55.0,23.0,29,30.11,10.0,South,12.7,21.9,N/A,,Clear,190,2013-01-18 23:53:00
6:53 PM,52.0,25.0,35,30.12,10.0,South,10.4,-,N/A,,Clear,190,2013-01-19 00:53:00
7:53 PM,51.1,26.1,38,30.11,10.0,South,10.4,-,N/A,,Clear,190,2013-01-19 01:53:00
8:53 PM,48.9,25.0,39,30.11,10.0,South,6.9,-,N/A,,Clear,190,2013-01-19 02:53:00
9:53 PM,48.0,24.1,39,30.12,10.0,South,5.8,-,N/A,,Clear,190,2013-01-19 03:53:00
10:53 PM,46.9,23.0,39,30.12,10.0,South,5.8,-,N/A,,Clear,170,2013-01-19 04:53:00
11:53 PM,46.0,21.9,39,30.10,10.0,South,4.6,-,N/A,,Clear,170,2013-01-19 05:53:00